QPF
0.04 0.04 0.04 0.03 0.03 0.02 0.03 0.03 0.04 0.03 0.03 0.04 0.04 0.05 0.06 0.06 0.05 0.05 0.04 0.03 0.02 0.02 0.03 0.03 0.04 0.04 0.05 0.09 0.13 0.13 0.10 0.08 0.06 0.05 0.04 0.04 0.04 0.05
0.04 0.05 0.04 0.04 0.03 0.03 0.03 0.04 0.04 0.04 0.04 0.03 0.03 0.03 0.04 0.04 0.04 0.03 0.04 0.04 0.02 0.01 0.02 0.02 0.02 0.03 0.04 0.08 0.08 0.08 0.08 0.05 0.05 0.05 0.04 0.04 0.04 0.04
0.04 0.04 0.04 0.05 0.05 0.05 0.05 0.04 0.05 0.06 0.05 0.04 0.04 0.03 0.04 0.05 0.05 0.04 0.04 0.04 0.02 0.01 0.01 0.01 0.01 0.02 0.02 0.04 0.04 0.05 0.05 0.03 0.03 0.03 0.03 0.03 0.03 0.04
0.04 0.04 0.03 0.04 0.05 0.06 0.05 0.06 0.07 0.07 0.08 0.07 0.06 0.05 0.05 0.05 0.06 0.06 0.04 0.04 0.02 0.01 0.01 0.01 0.01 0.01 0.02 0.02 0.02 0.03 0.03 0.02 0.02 0.02 0.02 0.02 0.02 0.03
0.03 0.04 0.03 0.04 0.05 0.05 0.06 0.07 0.08 0.08 0.10 0.09 0.07 0.07 0.06 0.06 0.07 0.07 0.05 0.05 0.02 0.01 0.01 0.01 0.01 0.01 0.01 0.01 0.01 0.01 0.01 0.01 0.01 0.01 0.01 0.01 0.01 0.01
0.02 0.03 0.04 0.05 0.06 0.06 0.06 0.07 0.08 0.09 0.09 0.09 0.08 0.08 0.09 0.08 0.08 0.08 0.08 0.07 0.04 0.02 0.01 0.01 0.01 0.01 0.01 0.01 0.01 0.00 0.00 0.01 0.01 0.01 0.01 0.01 0.01 0.01
0.02 0.02 0.03 0.03 0.04 0.05 0.05 0.06 0.07 0.08 0.08 0.08 0.07 0.08 0.08 0.10 0.10 0.09 0.08 0.08 0.06 0.03 0.03 0.03 0.02 0.02 0.02 0.01 0.01 0.00 0.00 0.00 0.00 0.00 0.00 0.01 0.01 0.02
0.03 0.03 0.02 0.02 0.03 0.03 0.03 0.03 0.04 0.05 0.05 0.05 0.06 0.07 0.10 0.11 0.11 0.10 0.09 0.07 0.06 0.06 0.06 0.05 0.03 0.03 0.03 0.02 0.02 0.00 0.00 0.00 0.00 0.00 0.00 0.00 0.01 0.01
0.03 0.04 0.03 0.03 0.04 0.04 0.03 0.02 0.02 0.03 0.03 0.04 0.06 0.07 0.10 0.12 0.10 0.08 0.08 0.08 0.07 0.06 0.06 0.05 0.05 0.05 0.04 0.03 0.02 0.00 0.00 0.00 0.00 0.00 0.00 0.00 0.01 0.01
0.04 0.05 0.05 0.05 0.06 0.05 0.03 0.04 0.05 0.06 0.06 0.07 0.08 0.08 0.10 0.11 0.10 0.07 0.07 0.07 0.07 0.06 0.06 0.05 0.06 0.06 0.05 0.05 0.03 0.01 0.00 0.00 0.00 0.00 0.00 0.00 0.00 0.00
0.04 0.05 0.05 0.06 0.05 0.04 0.04 0.05 0.05 0.06 0.07 0.08 0.08 0.08 0.07 0.06 0.05 0.04 0.04 0.05 0.05 0.05 0.06 0.05 0.06 0.06 0.06 0.06 0.03 0.01 0.01 0.00 0.00 0.00 0.00 0.00 0.00 0.00
0.05 0.05 0.04 0.03 0.03 0.04 0.03 0.04 0.05 0.06 0.06 0.07 0.08 0.08 0.06 0.07 0.07 0.06 0.06 0.05 0.05 0.04 0.04 0.05 0.05 0.06 0.05 0.05 0.04 0.02 0.01 0.01 0.01 0.00 0.00 0.00 0.00 0.00
0.04 0.06 0.07 0.05 0.04 0.04 0.04 0.05 0.05 0.05 0.05 0.06 0.07 0.07 0.08 0.10 0.12 0.11 0.10 0.08 0.06 0.05 0.04 0.05 0.05 0.05 0.06 0.06 0.05 0.03 0.03 0.02 0.02 0.01 0.01 0.01 0.01 0.01
0.02 0.03 0.04 0.04 0.03 0.03 0.03 0.03 0.02 0.02 0.03 0.03 0.04 0.05 0.07 0.08 0.09 0.09 0.09 0.09 0.08 0.06 0.05 0.06 0.07 0.07 0.07 0.06 0.05 0.05 0.04 0.04 0.03 0.03 0.02 0.02 0.01 0.01
0.02 0.02 0.02 0.01 0.01 0.01 0.01 0.01 0.01 0.01 0.03 0.03 0.04 0.05 0.05 0.07 0.07 0.08 0.08 0.07 0.06 0.05 0.05 0.07 0.08 0.07 0.07 0.06 0.06 0.05 0.05 0.04 0.04 0.04 0.04 0.02 0.02 0.02
0.01 0.01 0.01 0.01 0.01 0.01 0.01 0.01 0.02 0.03 0.04 0.05 0.05 0.05 0.04 0.06 0.07 0.07 0.07 0.07 0.07 0.05 0.06 0.06 0.06 0.07 0.06 0.05 0.06 0.05 0.05 0.05 0.04 0.05 0.05 0.04 0.03 0.03
0.01 0.01 0.01 0.01 0.02 0.02 0.02 0.02 0.02 0.03 0.04 0.05 0.05 0.05 0.05 0.05 0.06 0.06 0.07 0.07 0.06 0.06 0.05 0.06 0.07 0.07 0.07 0.06 0.07 0.06 0.07 0.07 0.06 0.06 0.06 0.06 0.04 0.03
0.02 0.01 0.02 0.02 0.02 0.02 0.02 0.02 0.02 0.02 0.03 0.04 0.05 0.05 0.04 0.05 0.05 0.06 0.06 0.07 0.06 0.06 0.06 0.06 0.07 0.08 0.08 0.06 0.05 0.06 0.06 0.07 0.07 0.07 0.08 0.07 0.05 0.04
0.02 0.02 0.02 0.02 0.02 0.02 0.02 0.02 0.02 0.02 0.03 0.03 0.04 0.04 0.04 0.04 0.05 0.05 0.05 0.05 0.06 0.05 0.05 0.05 0.06 0.07 0.08 0.06 0.04 0.04 0.05 0.06 0.07 0.08 0.07 0.07 0.06 0.05
0.02 0.03 0.02 0.02 0.02 0.02 0.02 0.03 0.04 0.04 0.03 0.04 0.05 0.04 0.04 0.04 0.05 0.05 0.05 0.06 0.06 0.05 0.04 0.05 0.05 0.06 0.08 0.07 0.06 0.04 0.04 0.06 0.08 0.07 0.06 0.06 0.06 0.05
0.02 0.02 0.02 0.02 0.02 0.02 0.03 0.05 0.05 0.05 0.05 0.05 0.05 0.04 0.04 0.05 0.06 0.06 0.06 0.06 0.05 0.05 0.04 0.04 0.04 0.03 0.04 0.06 0.06 0.04 0.03 0.04 0.05 0.06 0.07 0.07 0.07 0.07
0.02 0.02 0.02 0.02 0.03 0.04 0.04 0.04 0.04 0.05 0.04 0.05 0.05 0.06 0.06 0.07 0.06 0.06 0.06 0.06 0.06 0.05 0.04 0.04 0.03 0.03 0.04 0.06 0.07 0.06 0.05 0.05 0.04 0.04 0.05 0.06 0.07 0.06
0.02 0.02 0.02 0.02 0.02 0.03 0.04 0.04 0.04 0.05 0.07 0.06 0.05 0.05 0.05 0.05 0.05 0.04 0.04 0.05 0.05 0.05 0.06 0.06 0.05 0.05 0.06 0.07 0.08 0.07 0.06 0.05 0.05 0.05 0.04 0.04 0.04 0.04
MSLP
1014.43 1014.32 1014.21 1014.11 1013.99 1013.80 1013.53 1013.15 1012.65 1012.03 1011.33 1010.58 1009.84 1009.16 1008.58 1008.12 1007.79 1007.58 1007.47 1007.42 1007.40 1007.38 1007.34 1007.27 1007.18 1007.08 1006.99 1006.94 1006.93 1006.98 1007.09 1007.25 1007.47 1007.73 1008.02 1008.34 1008.69 1009.05
1014.13 1013.97 1013.83 1013.69 1013.54 1013.36 1013.10 1012.75 1012.29 1011.72 1011.05 1010.33 1009.60 1008.89 1008.26 1007.73 1007.31 1007.01 1006.81 1006.68 1006.60 1006.54 1006.49 1006.44 1006.39 1006.35 1006.34 1006.36 1006.42 1006.54 1006.71 1006.94 1007.20 1007.49 1007.81 1008.14 1008.48 1008.82
1013.84 1013.62 1013.41 1013.22 1013.03 1012.82 1012.57 1012.24 1011.83 1011.32 1010.72 1010.05 1009.36 1008.67 1008.02 1007.44 1006.95 1006.56 1006.25 1006.02 1005.85 1005.72 1005.63 1005.57 1005.53 1005.53 1005.57 1005.67 1005.82 1006.03 1006.29 1006.59 1006.93 1007.28 1007.64 1008.00 1008.34 1008.66
1013.59 1013.30 1013.01 1012.74 1012.49 1012.25 1011.98 1011.68 1011.31 1010.86 1010.34 1009.76 1009.13 1008.48 1007.85 1007.25 1006.71 1006.23 1005.82 1005.49 1005.21 1005.00 1004.83 1004.73 1004.68 1004.69 1004.77 1004.93 1005.16 1005.46 1005.81 1006.20 1006.62 1007.04 1007.45 1007.84 1008.19 1008.49
1013.39 1013.02 1012.65 1012.30 1011.98 1011.69 1011.40 1011.09 1010.76 1010.38 1009.93 1009.43 1008.88 1008.30 1007.70 1007.10 1006.53 1006.00 1005.52 1005.08 1004.71 1004.40 1004.16 1004.00 1003.91 1003.92 1004.02 1004.21 1004.50 1004.86 1005.29 1005.75 1006.24 1006.72 1007.18 1007.60 1007.96 1008.25
1013.20 1012.75 1012.31 1011.89 1011.50 1011.15 1010.83 1010.52 1010.20 1009.86 1009.49 1009.06 1008.59 1008.07 1007.52 1006.95 1006.38 1005.82 1005.28 1004.78 1004.33 1003.94 1003.63 1003.40 1003.28 1003.26 1003.35 1003.56 1003.87 1004.27 1004.74 1005.26 1005.79 1006.31 1006.80 1007.24 1007.60 1007.90
1012.97 1012.48 1011.98 1011.49 1011.05 1010.64 1010.28 1009.96 1009.65 1009.34 1009.01 1008.64 1008.23 1007.78 1007.27 1006.74 1006.18 1005.61 1005.05 1004.52 1004.02 1003.58 1003.22 1002.95 1002.78 1002.73 1002.81 1003.00 1003.31 1003.72 1004.20 1004.72 1005.26 1005.80 1006.29 1006.73 1007.10 1007.40
1012.67 1012.15 1011.61 1011.09 1010.60 1010.16 1009.77 1009.43 1009.12 1008.81 1008.51 1008.17 1007.81 1007.39 1006.93 1006.43 1005.90 1005.35 1004.79 1004.25 1003.74 1003.29 1002.90 1002.61 1002.42 1002.34 1002.38 1002.55 1002.83 1003.21 1003.66 1004.16 1004.68 1005.19 1005.67 1006.10 1006.47 1006.77
1012.28 1011.76 1011.21 1010.68 1010.17 1009.71 1009.30 1008.93 1008.61 1008.30 1008.00 1007.68 1007.33 1006.94 1006.51 1006.04 1005.53 1005.01 1004.47 1003.95 1003.46 1003.01 1002.63 1002.34 1002.14 1002.04 1002.06 1002.19 1002.43 1002.75 1003.15 1003.59 1004.06 1004.53 1004.97 1005.38 1005.73 1006.04
1011.84 1011.32 1010.78 1010.25 1009.74 1009.27 1008.85 1008.48 1008.14 1007.82 1007.51 1007.19 1006.84 1006.45 1006.03 1005.58 1005.10 1004.60 1004.10 1003.61 1003.15 1002.74 1002.39 1002.11 1001.91 1001.81 1001.81 1001.90 1002.08 1002.35 1002.67 1003.05 1003.44 1003.85 1004.24 1004.61 1004.95 1005.27
1011.39 1010.88 1010.35 1009.82 1009.32 1008.85 1008.43 1008.05 1007.71 1007.38 1007.06 1006.72 1006.36 1005.98 1005.56 1005.11 1004.64 1004.17 1003.70 1003.25 1002.84 1002.47 1002.15 1001.90 1001.72 1001.62 1001.60 1001.66 1001.79 1001.99 1002.25 1002.55 1002.87 1003.21 1003.55 1003.88 1004.20 1004.52
1010.97 1010.46 1009.93 1009.41 1008.91 1008.45 1008.03 1007.65 1007.30 1006.97 1006.64 1006.29 1005.93 1005.53 1005.11 1004.67 1004.22 1003.77 1003.33 1002.91 1002.54 1002.21 1001.93 1001.71 1001.55 1001.46 1001.43 1001.46 1001.56 1001.70 1001.89 1002.12 1002.38 1002.65 1002.94 1003.24 1003.55 1003.87
1010.61 1010.09 1009.54 1009.01 1008.50 1008.04 1007.62 1007.24 1006.89 1006.56 1006.23 1005.89 1005.52 1005.13 1004.72 1004.29 1003.85 1003.42 1003.01 1002.62 1002.28 1001.98 1001.74 1001.54 1001.41 1001.32 1001.29 1001.30 1001.37 1001.47 1001.62 1001.79 1002.00 1002.23 1002.48 1002.75 1003.04 1003.36
1010.32 1009.76 1009.18 1008.62 1008.09 1007.60 1007.17 1006.79 1006.45 1006.12 1005.81 1005.48 1005.13 1004.76 1004.37 1003.96 1003.54 1003.13 1002.74 1002.39 1002.07 1001.80 1001.58 1001.41 1001.28 1001.21 1001.17 1001.18 1001.23 1001.31 1001.42 1001.57 1001.74 1001.94 1002.17 1002.42 1002.70 1003.00
1010.06 1009.45 1008.82 1008.21 1007.65 1007.14 1006.69 1006.30 1005.96 1005.65 1005.35 1005.05 1004.73 1004.39 1004.03 1003.66 1003.27 1002.89 1002.53 1002.20 1001.91 1001.66 1001.45 1001.30 1001.18 1001.11 1001.08 1001.09 1001.12 1001.19 1001.30 1001.43 1001.58 1001.77 1001.98 1002.22 1002.48 1002.78
1009.79 1009.13 1008.45 1007.80 1007.19 1006.65 1006.18 1005.78 1005.44 1005.14 1004.87 1004.60 1004.32 1004.02 1003.70 1003.36 1003.02 1002.67 1002.35 1002.04 1001.77 1001.54 1001.35 1001.20 1001.10 1001.03 1001.00 1001.00 1001.03 1001.10 1001.19 1001.32 1001.47 1001.65 1001.85 1002.08 1002.33 1002.61
1009.48 1008.78 1008.07 1007.38 1006.75 1006.18 1005.70 1005.29 1004.95 1004.66 1004.40 1004.16 1003.91 1003.65 1003.37 1003.07 1002.77 1002.46 1002.16 1001.89 1001.64 1001.43 1001.25 1001.11 1001.01 1000.94 1000.90 1000.90 1000.93 1000.98 1001.07 1001.19 1001.33 1001.50 1001.69 1001.91 1002.15 1002.42
1009.12 1008.42 1007.72 1007.03 1006.40 1005.83 1005.35 1004.94 1004.60 1004.31 1004.05 1003.81 1003.58 1003.33 1003.07 1002.80 1002.53 1002.25 1001.98 1001.73 1001.51 1001.31 1001.14 1001.01 1000.90 1000.82 1000.77 1000.75 1000.76 1000.80 1000.87 1000.96 1001.09 1001.24 1001.41 1001.61 1001.83 1002.08
1008.75 1008.10 1007.45 1006.81 1006.22 1005.69 1005.22 1004.82 1004.48 1004.18 1003.91 1003.65 1003.40 1003.14 1002.88 1002.61 1002.33 1002.07 1001.82 1001.58 1001.37 1001.18 1001.02 1000.88 1000.77 1000.68 1000.60 1000.55 1000.53 1000.53 1000.55 1000.61 1000.69 1000.80 1000.94 1001.11 1001.31 1001.53
1008.45 1007.90 1007.35 1006.81 1006.31 1005.84 1005.42 1005.04 1004.70 1004.38 1004.07 1003.76 1003.46 1003.15 1002.84 1002.53 1002.23 1001.95 1001.69 1001.46 1001.25 1001.06 1000.90 1000.76 1000.62 1000.50 1000.40 1000.30 1000.22 1000.16 1000.12 1000.12 1000.14 1000.19 1000.27 1000.39 1000.55 1000.74
1008.27 1007.87 1007.46 1007.07 1006.69 1006.32 1005.97 1005.63 1005.28 1004.93 1004.56 1004.18 1003.79 1003.39 1003.00 1002.62 1002.26 1001.93 1001.64 1001.39 1001.17 1000.98 1000.80 1000.64 1000.49 1000.33 1000.18 1000.03 999.88 999.74 999.62 999.52 999.46 999.43 999.45 999.50 999.61 999.76
1008.28 1008.05 1007.82 1007.59 1007.36 1007.12 1006.85 1006.54 1006.19 1005.80 1005.36 1004.88 1004.38 1003.86 1003.36 1002.87 1002.43 1002.03 1001.69 1001.40 1001.15 1000.94 1000.75 1000.57 1000.39 1000.20 999.99 999.77 999.55 999.32 999.11 998.92 998.76 998.64 998.57 998.55 998.59 998.69
1008.49 1008.42 1008.37 1008.32 1008.24 1008.12 1007.94 1007.67 1007.32 1006.89 1006.37 1005.79 1005.16 1004.51 1003.88 1003.27 1002.72 1002.24 1001.84 1001.49 1001.22 1000.98 1000.77 1000.57 1000.36 1000.13 999.88 999.60 999.31 999.00 998.70 998.41 998.16 997.94 997.78 997.68 997.65 997.69
Thickness
5634 5631 5629 5628 5627 5627 5625 5622 5618 5616 5619 5622 5624 5626 5626 5625 5623 5622 5621 5619 5618 5617 5616 5615 5614 5615 5615 5616 5617 5618 5621 5624 5627 5629 5631 5633 5635 5637
5630 5627 5624 5623 5623 5622 5621 5619 5617 5613 5612 5616 5617 5619 5619 5619 5618 5617 5616 5616 5615 5613 5612 5611 5610 5610 5611 5611 5612 5613 5615 5617 5619 5622 5624 5626 5627 5630
5627 5624 5621 5620 5618 5616 5615 5614 5613 5611 5608 5611 5612 5614 5612 5612 5611 5611 5611 5611 5610 5610 5609 5607 5606 5606 5606 5606 5607 5608 5609 5610 5612 5615 5616 5618 5620 5622
5623 5621 5618 5616 5613 5611 5610 5609 5608 5607 5604 5604 5605 5607 5607 5607 5607 5606 5607 5607 5607 5606 5605 5604 5603 5601 5601 5602 5602 5602 5603 5604 5606 5608 5609 5611 5612 5614
5621 5617 5615 5612 5609 5607 5606 5605 5604 5604 5601 5599 5600 5602 5602 5602 5601 5601 5601 5601 5602 5602 5601 5600 5599 5598 5597 5597 5597 5597 5598 5599 5600 5601 5602 5603 5605 5608
5618 5615 5613 5610 5607 5605 5603 5601 5600 5598 5597 5596 5596 5597 5597 5597 5596 5595 5594 5595 5595 5597 5596 5596 5595 5594 5593 5593 5593 5593 5593 5593 5594 5595 5595 5597 5598 5601
5615 5612 5611 5608 5606 5603 5601 5598 5596 5594 5592 5591 5591 5591 5591 5590 5590 5590 5589 5589 5590 5591 5590 5591 5591 5590 5589 5589 5589 5589 5589 5589 5589 5589 5590 5591 5592 5594
5611 5609 5608 5606 5603 5601 5598 5596 5594 5590 5589 5587 5586 5586 5586 5586 5586 5585 5583 5582 5583 5586 5585 5585 5586 5586 5586 5587 5587 5586 5586 5585 5585 5585 5585 5586 5587 5588
5608 5606 5605 5604 5600 5598 5596 5593 5591 5589 5586 5584 5582 5582 5582 5583 5581 5580 5578 5578 5578 5581 5580 5580 5582 5582 5583 5585 5585 5584 5583 5583 5582 5581 5581 5580 5581 5582
5607 5604 5601 5599 5597 5593 5592 5590 5589 5587 5586 5583 5581 5580 5580 5579 5577 5576 5575 5575 5576 5577 5577 5575 5578 5578 5581 5581 5582 5582 5580 5579 5578 5577 5576 5576 5576 5577
5606 5603 5599 5596 5592 5588 5586 5585 5583 5583 5583 5581 5579 5577 5576 5575 5573 5571 5570 5569 5570 5572 5574 5572 5574 5574 5576 5576 5577 5577 5576 5575 5574 5573 5573 5572 5572 5572
5602 5599 5596 5592 5588 5584 5580 5579 5577 5577 5577 5576 5574 5573 5572 5572 5571 5568 5567 5566 5566 5568 5572 5570 5570 5569 5569 5572 5572 5572 5571 5570 5570 5569 5569 5568 5568 5566
5597 5595 5593 5588 5584 5579 5575 5573 5572 5571 5570 5570 5569 5569 5569 5569 5569 5568 5567 5565 5564 5566 5569 5567 5566 5565 5564 5566 5568 5568 5567 5567 5566 5565 5565 5564 5564 5563
5592 5590 5588 5583 5579 5576 5573 5571 5569 5566 5565 5564 5564 5564 5565 5565 5566 5566 5566 5566 5565 5565 5566 5564 5562 5561 5560 5560 5562 5563 5563 5563 5563 5563 5562 5562 5560 5560
5588 5586 5582 5579 5576 5574 5571 5569 5566 5563 5562 5561 5560 5561 5561 5562 5562 5563 5563 5564 5563 5563 5563 5562 5560 5560 5559 5558 5558 5559 5558 5559 5560 5559 5558 5558 5557 5556
5584 5582 5580 5578 5574 5571 5568 5567 5564 5562 5560 5558 5558 5558 5559 5559 5558 5558 5558 5559 5558 5559 5560 5560 5559 5557 5556 5556 5554 5554 5554 5553 5555 5555 5554 5554 5553 5553
5579 5579 5578 5576 5573 5570 5568 5565 5562 5560 5557 5555 5554 5553 5554 5555 5555 5555 5555 5555 5554 5554 5555 5556 5555 5554 5553 5551 5549 5549 5549 5550 5551 5550 5549 5548 5549 5549
5575 5576 5575 5572 5569 5567 5564 5561 5559 5556 5553 5551 5550 5548 5548 5549 5550 5550 5551 5550 5549 5550 5550 5550 5549 5548 5547 5547 5547 5546 5546 5545 5546 5546 5545 5543 5543 5544
5574 5574 5572 5569 5567 5564 5560 5557 5555 5552 5550 5547 5545 5544 5544 5544 5544 5544 5544 5544 5544 5545 5545 5545 5544 5542 5541 5541 5543 5544 5542 5541 5541 5541 5541 5540 5539 5538
5574 5572 5570 5567 5564 5560 5557 5554 5550 5547 5545 5544 5542 5540 5539 5538 5538 5538 5538 5538 5538 5538 5539 5539 5539 5537 5535 5536 5537 5538 5538 5537 5536 5536 5536 5536 5533 5532
5575 5571 5567 5563 5560 5557 5553 5550 5546 5543 5541 5539 5536 5535 5533 5532 5532 5532 5533 5532 5531 5532 5532 5533 5534 5534 5533 5533 5532 5533 5532 5532 5533 5532 5532 5530 5528 5527
5572 5568 5563 5559 5556 5552 5549 5545 5542 5539 5536 5533 5531 5529 5528 5526 5526 5526 5528 5527 5527 5527 5527 5527 5529 5528 5528 5527 5527 5527 5528 5527 5527 5528 5527 5526 5525 5523
5568 5563 5558 5555 5551 5547 5543 5540 5536 5533 5530 5527 5525 5524 5523 5522 5521 5521 5522 5522 5522 5521 5521 5522 5522 5522 5522 5522 5522 5522 5521 5522 5522 5521 5520 5521 5521 5520